Time,TemperatureF,DewpointF,PressureIn,WindDirection,WindDirectionDegrees,WindSpeedMPH,WindSpeedGustMPH,Humidity,HourlyPrecipIn,Conditions,Clouds,dailyrainin,SoftwareType,DateUTC
2013-07-06 00:11:00,51.1,42.0,29.68,SSE,163,0.0,0.0,70,0.00,,,0.00,weatherlink.com 1.10,2013-07-06 06:11:00,
2013-07-06 00:26:00,50.7,42.0,29.69,SSE,163,0.0,0.0,72,0.00,,,0.00,weatherlink.com 1.10,2013-07-06 06:26:00,
2013-07-06 00:41:00,50.3,42.0,29.69,SSE,164,0.0,0.0,74,0.00,,,0.00,weatherlink.com 1.10,2013-07-06 06:41:00,
2013-07-06 00:56:00,49.9,42.0,29.69,SSE,164,0.0,1.0,74,0.00,,,0.00,weatherlink.com 1.10,2013-07-06 06:56:00,
2013-07-06 01:11:00,49.4,42.0,29.68,SSE,164,0.0,1.0,75,0.00,,,0.00,weatherlink.com 1.10,2013-07-06 07:11:00,
2013-07-06 01:26:00,49.0,42.0,29.68,SSE,164,0.0,1.0,77,0.00,,,0.00,weatherlink.com 1.10,2013-07-06 07:26:00,
2013-07-06 01:41:00,48.9,42.0,29.68,South,171,0.0,0.0,77,0.00,,,0.00,weatherlink.com 1.10,2013-07-06 07:41:00,
2013-07-06 01:56:00,49.3,42.0,29.68,SSW,202,0.0,1.0,77,0.00,,,0.00,weatherlink.com 1.10,2013-07-06 07:56:00,
2013-07-06 02:11:00,49.0,42.0,29.68,SSW,202,0.0,0.0,77,0.00,,,0.00,weatherlink.com 1.10,2013-07-06 08:11:00,
2013-07-06 02:26:00,48.7,42.0,29.68,SSW,202,0.0,1.0,78,0.00,,,0.00,weatherlink.com 1.10,2013-07-06 08:26:00,
2013-07-06 02:41:00,48.7,42.0,29.68,SSW,202,0.0,1.0,78,0.00,,,0.00,weatherlink.com 1.10,2013-07-06 08:41:00,
2013-07-06 02:56:00,48.9,42.0,29.69,SSW,202,0.0,0.0,78,0.00,,,0.00,weatherlink.com 1.10,2013-07-06 08:56:00,
2013-07-06 03:11:00,49.3,42.0,29.70,SSW,202,0.0,0.0,77,0.00,,,0.00,weatherlink.com 1.10,2013-07-06 09:11:00,
2013-07-06 03:26:00,49.8,43.0,29.70,SSW,202,0.0,0.0,76,0.00,,,0.00,weatherlink.com 1.10,2013-07-06 09:26:00,
2013-07-06 03:41:00,50.0,43.0,29.70,SSW,202,0.0,0.0,76,0.00,,,0.00,weatherlink.com 1.10,2013-07-06 09:41:00,
2013-07-06 03:56:00,49.5,43.0,29.71,SSW,202,0.0,0.0,77,0.00,,,0.00,weatherlink.com 1.10,2013-07-06 09:56:00,
2013-07-06 04:11:00,49.3,42.0,29.71,SSW,202,0.0,0.0,77,0.00,,,0.00,weatherlink.com 1.10,2013-07-06 10:11:00,
2013-07-06 04:26:00,48.5,42.0,29.71,SSW,202,0.0,0.0,79,0.00,,,0.00,weatherlink.com 1.10,2013-07-06 10:26:00,
2013-07-06 04:41:00,47.8,42.0,29.70,SSW,202,0.0,1.0,80,0.00,,,0.00,weatherlink.com 1.10,2013-07-06 10:41:00,
2013-07-06 04:56:00,47.1,42.0,29.71,SSW,202,0.0,0.0,81,0.00,,,0.00,weatherlink.com 1.10,2013-07-06 10:56:00,
2013-07-06 05:12:00,46.4,42.0,29.70,SSW,202,0.0,0.0,83,0.00,,,0.00,weatherlink.com 1.10,2013-07-06 11:12:00,
2013-07-06 05:27:00,46.2,42.0,29.71,SSW,202,0.0,0.0,84,0.00,,,0.00,weatherlink.com 1.10,2013-07-06 11:27:00,
2013-07-06 05:42:00,45.5,41.0,29.72,SSW,202,0.0,0.0,84,0.00,,,0.00,weatherlink.com 1.10,2013-07-06 11:42:00,
2013-07-06 05:57:00,45.1,41.0,29.72,SSW,202,0.0,0.0,85,0.00,,,0.00,weatherlink.com 1.10,2013-07-06 11:57:00,
2013-07-06 06:12:00,44.7,41.0,29.72,SSW,202,0.0,0.0,86,0.00,,,0.00,weatherlink.com 1.10,2013-07-06 12:12:00,
2013-07-06 06:27:00,44.3,40.0,29.73,SSW,202,0.0,0.0,86,0.00,,,0.00,weatherlink.com 1.10,2013-07-06 12:27:00,
2013-07-06 06:42:00,44.1,41.0,29.72,SSW,202,0.0,0.0,87,0.00,,,0.00,weatherlink.com 1.10,2013-07-06 12:42:00,
2013-07-06 06:57:00,44.3,41.0,29.72,SSW,202,0.0,0.0,87,0.00,,,0.00,weatherlink.com 1.10,2013-07-06 12:57:00,
2013-07-06 07:12:00,44.9,42.0,29.72,SSW,202,0.0,0.0,88,0.00,,,0.00,weatherlink.com 1.10,2013-07-06 13:12:00,
2013-07-06 07:27:00,46.2,43.0,29.73,SSW,202,0.0,0.0,87,0.00,,,0.00,weatherlink.com 1.10,2013-07-06 13:27:00,
2013-07-06 07:42:00,47.8,44.0,29.73,SSW,202,0.0,0.0,85,0.00,,,0.00,weatherlink.com 1.10,2013-07-06 13:42:00,
2013-07-06 07:57:00,49.2,45.0,29.73,SSW,202,0.0,0.0,84,0.00,,,0.00,weatherlink.com 1.10,2013-07-06 13:57:00,
2013-07-06 08:12:00,51.3,44.0,29.73,SSW,202,0.0,0.0,76,0.00,,,0.00,weatherlink.com 1.10,2013-07-06 14:12:00,
2013-07-06 08:27:00,54.0,44.0,29.73,SSE,160,0.0,1.0,70,0.00,,,0.00,weatherlink.com 1.10,2013-07-06 14:27:00,
2013-07-06 08:42:00,56.7,45.0,29.73,ESE,102,1.0,2.0,65,0.00,,,0.00,weatherlink.com 1.10,2013-07-06 14:42:00,
2013-07-06 08:57:00,58.2,45.0,29.72,ESE,105,0.0,2.0,63,0.00,,,0.00,weatherlink.com 1.10,2013-07-06 14:57:00,
2013-07-06 09:12:00,59.9,44.0,29.72,East,101,1.0,4.0,56,0.00,,,0.00,weatherlink.com 1.10,2013-07-06 15:12:00,
2013-07-06 09:27:00,61.4,44.0,29.71,East,89,0.0,4.0,54,0.00,,,0.00,weatherlink.com 1.10,2013-07-06 15:27:00,
2013-07-06 09:42:00,62.7,44.0,29.70,ESE,107,0.0,7.0,51,0.00,,,0.00,weatherlink.com 1.10,2013-07-06 15:42:00,
2013-07-06 10:27:00,65.4,44.0,29.70,ESE,105,0.0,7.0,46,0.00,,,0.00,weatherlink.com 1.10,2013-07-06 16:27:00,
2013-07-06 10:58:00,66.2,43.0,29.70,East,100,6.0,10.0,43,0.00,,,0.00,weatherlink.com 1.10,2013-07-06 16:58:00,
2013-07-06 11:43:00,70.3,43.0,29.69,ESE,105,1.0,8.0,37,0.00,,,0.00,weatherlink.com 1.10,2013-07-06 17:43:00,
2013-07-06 12:13:00,70.9,41.0,29.69,East,91,7.0,12.0,34,0.00,,,0.00,weatherlink.com 1.10,2013-07-06 18:13:00,
2013-07-06 12:43:00,72.7,41.0,29.69,ESE,102,5.0,9.0,32,0.00,,,0.00,weatherlink.com 1.10,2013-07-06 18:43:00,
2013-07-06 12:58:00,72.3,43.0,29.68,East,93,3.0,12.0,35,0.00,,,0.00,weatherlink.com 1.10,2013-07-06 18:58:00,
2013-07-06 13:43:00,72.4,40.0,29.67,ESE,105,4.0,12.0,31,0.00,,,0.00,weatherlink.com 1.10,2013-07-06 19:43:00,
2013-07-06 13:58:00,73.5,41.0,29.67,East,97,5.0,9.0,31,0.00,,,0.00,weatherlink.com 1.10,2013-07-06 19:58:00,
2013-07-06 14:28:00,73.7,39.0,29.65,ESE,109,7.0,17.0,28,0.00,,,0.00,weatherlink.com 1.10,2013-07-06 20:28:00,
2013-07-06 14:58:00,75.6,39.0,29.64,East,101,0.0,12.0,27,0.00,,,0.00,weatherlink.com 1.10,2013-07-06 20:58:00,
2013-07-06 15:13:00,75.6,41.0,29.63,East,82,2.0,8.0,29,0.00,,,0.00,weatherlink.com 1.10,2013-07-06 21:13:00,
2013-07-06 15:58:00,77.5,40.0,29.61,East,100,2.0,8.0,26,0.00,,,0.00,weatherlink.com 1.10,2013-07-06 21:58:00,
2013-07-06 16:28:00,76.5,36.0,29.61,East,79,5.0,12.0,23,0.00,,,0.00,weatherlink.com 1.10,2013-07-06 22:28:00,
2013-07-06 16:43:00,75.5,36.0,29.60,East,98,4.0,11.0,24,0.00,,,0.00,weatherlink.com 1.10,2013-07-06 22:43:00,
2013-07-06 16:58:00,74.6,36.0,29.60,ENE,76,2.0,9.0,25,0.00,,,0.00,weatherlink.com 1.10,2013-07-06 22:58:00,
2013-07-06 17:28:00,72.5,42.0,29.59,ENE,66,0.0,8.0,33,0.00,,,0.00,weatherlink.com 1.10,2013-07-06 23:28:00,
2013-07-06 17:43:00,71.4,42.0,29.59,West,259,0.0,3.0,35,0.00,,,0.00,weatherlink.com 1.10,2013-07-06 23:43:00,
2013-07-06 18:43:00,64.0,46.0,29.62,WSW,257,0.0,5.0,52,0.00,,,0.00,weatherlink.com 1.10,2013-07-07 00:43:00,
2013-07-06 18:58:00,62.1,47.0,29.63,WSW,239,5.0,5.0,58,0.00,,,0.00,weatherlink.com 1.10,2013-07-07 00:58:00,
2013-07-06 19:13:00,60.9,47.0,29.63,West,276,1.0,8.0,60,0.00,,,0.00,weatherlink.com 1.10,2013-07-07 01:13:00,
2013-07-06 19:28:00,61.1,46.0,29.64,East,101,0.0,5.0,57,0.00,,,0.00,weatherlink.com 1.10,2013-07-07 01:28:00,
2013-07-06 19:58:00,60.4,46.0,29.66,WNW,282,0.0,1.0,59,0.00,,,0.00,weatherlink.com 1.10,2013-07-07 01:58:00,
2013-07-06 20:13:00,60.0,46.0,29.66,West,260,0.0,3.0,60,0.00,,,0.00,weatherlink.com 1.10,2013-07-07 02:13:00,
2013-07-06 20:28:00,59.3,46.0,29.67,East,89,0.0,3.0,62,0.00,,,0.00,weatherlink.com 1.10,2013-07-07 02:28:00,
2013-07-06 20:43:00,58.7,46.0,29.68,SSE,167,0.0,0.0,64,0.00,,,0.00,weatherlink.com 1.10,2013-07-07 02:43:00,
2013-07-06 21:14:00,57.5,47.0,29.71,WNW,285,0.0,2.0,67,0.00,,,0.00,weatherlink.com 1.10,2013-07-07 03:14:00,
2013-07-06 21:44:00,56.7,47.0,29.72,West,267,0.0,0.0,69,0.00,,,0.00,weatherlink.com 1.10,2013-07-07 03:44:00,
2013-07-06 22:14:00,56.4,47.0,29.74,West,266,0.0,1.0,71,0.00,,,0.00,weatherlink.com 1.10,2013-07-07 04:14:00,
2013-07-06 22:29:00,55.2,49.0,29.75,West,265,0.0,1.0,80,0.00,,,0.00,weatherlink.com 1.10,2013-07-07 04:29:00,
2013-07-06 22:44:00,54.4,49.0,29.75,West,264,0.0,1.0,83,0.00,,,0.00,weatherlink.com 1.10,2013-07-07 04:44:00,
2013-07-06 22:59:00,54.1,50.0,29.76,West,260,0.0,2.0,85,0.00,,,0.00,weatherlink.com 1.10,2013-07-07 04:59:00,
2013-07-06 23:14:00,53.8,49.0,29.76,WSW,248,1.0,2.0,85,0.00,,,0.00,weatherlink.com 1.10,2013-07-07 05:14:00,
2013-07-06 23:29:00,53.7,49.0,29.76,WSW,248,0.0,1.0,84,0.00,,,0.00,weatherlink.com 1.10,2013-07-07 05:29:00,
2013-07-06 23:44:00,53.6,49.0,29.76,WSW,248,0.0,1.0,84,0.00,,,0.00,weatherlink.com 1.10,2013-07-07 05:44:00,
2013-07-06 23:59:00,53.7,49.0,29.77,WSW,248,0.0,1.0,85,0.01,,,0.01,weatherlink.com 1.10,2013-07-07 05:59:00,